Time,TemperatureF,DewpointF,PressureIn,WindDirection,WindDirectionDegrees,WindSpeedMPH,WindSpeedGustMPH,Humidity,HourlyPrecipIn,Conditions,Clouds,dailyrainin,SoftwareType,DateUTC
2013-03-18 00:00:00,23.7,17.9,29.93,NNW,331,2.7,7.6,78,0.00,,,0.00,WUHU215WMR968SP,2013-03-18 04:00:00,
2013-03-18 00:05:00,23.7,18.4,29.93,NNE,26,2.7,7.6,80,0.00,,,0.00,WUHU215WMR968SP,2013-03-18 04:05:00,
2013-03-18 00:10:00,23.7,18.4,29.93,NNE,16,2.2,7.6,80,0.00,,,0.00,WUHU215WMR968SP,2013-03-18 04:10:00,
2013-03-18 00:15:00,23.7,18.4,29.93,East,100,2.2,7.6,80,0.00,,,0.00,WUHU215WMR968SP,2013-03-18 04:15:00,
2013-03-18 00:21:00,23.7,18.9,29.93,SE,125,2.7,6.3,82,0.00,,,0.00,WUHU215WMR968SP,2013-03-18 04:21:00,
2013-03-18 00:26:00,23.7,18.9,29.93,ENE,69,2.7,6.3,82,0.00,,,0.00,WUHU215WMR968SP,2013-03-18 04:26:00,
2013-03-18 00:31:00,23.7,18.9,29.93,NNE,17,2.7,5.4,82,0.00,,,0.00,WUHU215WMR968SP,2013-03-18 04:31:00,
2013-03-18 00:36:00,23.7,18.9,29.93,WSW,251,4.0,6.3,82,0.00,,,0.00,WUHU215WMR968SP,2013-03-18 04:36:00,
2013-03-18 00:41:00,23.7,19.4,29.93,ENE,58,0.0,6.3,83,0.00,,,0.00,WUHU215WMR968SP,2013-03-18 04:41:00,
2013-03-18 00:46:00,23.7,19.4,29.93,NNW,338,2.7,6.3,83,0.00,,,0.00,WUHU215WMR968SP,2013-03-18 04:46:00,
2013-03-18 00:51:00,23.7,19.4,29.90,East,92,2.2,6.3,83,0.00,,,0.00,WUHU215WMR968SP,2013-03-18 04:51:00,
2013-03-18 00:56:00,23.5,19.2,29.90,North,353,3.6,5.8,83,0.00,,,0.00,WUHU215WMR968SP,2013-03-18 04:56:00,
2013-03-18 01:01:00,23.5,19.6,29.90,WNW,288,2.2,5.8,85,0.00,,,0.00,WUHU215WMR968SP,2013-03-18 05:01:00,
2013-03-18 01:06:00,23.5,19.6,29.90,NW,321,2.7,8.1,85,0.00,,,0.00,WUHU215WMR968SP,2013-03-18 05:06:00,
2013-03-18 01:11:00,23.5,19.6,29.90,East,101,2.7,8.1,85,0.00,,,0.00,WUHU215WMR968SP,2013-03-18 05:11:00,
2013-03-18 01:16:00,23.5,19.6,29.90,North,8,2.7,6.3,85,0.00,,,0.00,WUHU215WMR968SP,2013-03-18 05:16:00,
2013-03-18 01:21:00,23.5,20.1,29.90,North,11,4.9,7.6,87,0.00,,,0.00,WUHU215WMR968SP,2013-03-18 05:21:00,
2013-03-18 01:26:00,23.5,20.1,29.90,WNW,297,0.0,7.6,87,0.00,,,0.00,WUHU215WMR968SP,2013-03-18 05:26:00,
2013-03-18 01:31:00,23.5,20.1,29.90,NNE,28,2.2,7.2,87,0.00,,,0.00,WUHU215WMR968SP,2013-03-18 05:31:00,
2013-03-18 01:36:00,23.5,20.1,29.90,NNW,339,2.7,5.4,87,0.00,,,0.00,WUHU215WMR968SP,2013-03-18 05:36:00,
2013-03-18 01:41:00,23.5,20.1,29.90,NW,317,0.0,5.4,87,0.00,,,0.00,WUHU215WMR968SP,2013-03-18 05:41:00,
2013-03-18 01:46:00,23.5,20.1,29.90,North,353,2.7,4.9,87,0.00,,,0.00,WUHU215WMR968SP,2013-03-18 05:46:00,
2013-03-18 01:51:00,23.5,20.5,29.90,SW,218,0.0,4.9,88,0.00,,,0.00,WUHU215WMR968SP,2013-03-18 05:51:00,
2013-03-18 01:56:00,23.5,20.5,29.90,SSE,168,3.1,6.3,88,0.00,,,0.00,WUHU215WMR968SP,2013-03-18 05:56:00,
2013-03-18 02:01:00,23.5,20.5,29.90,NNE,25,4.5,6.3,88,0.00,,,0.00,WUHU215WMR968SP,2013-03-18 06:01:00,
2013-03-18 02:06:00,23.5,20.5,29.87,NNW,346,3.6,5.8,88,0.00,,,0.00,WUHU215WMR968SP,2013-03-18 06:06:00,
2013-03-18 02:11:00,23.5,20.5,29.87,NNE,19,2.2,4.5,88,0.00,,,0.00,WUHU215WMR968SP,2013-03-18 06:11:00,
2013-03-18 02:16:00,23.5,20.5,29.87,NNE,24,0.0,4.9,88,0.00,,,0.00,WUHU215WMR968SP,2013-03-18 06:16:00,
2013-03-18 02:21:00,23.5,20.5,29.87,North,0,3.6,5.8,88,0.00,,,0.00,WUHU215WMR968SP,2013-03-18 06:21:00,
2013-03-18 02:26:00,23.5,21.0,29.87,SSW,209,3.1,5.8,90,0.00,,,0.00,WUHU215WMR968SP,2013-03-18 06:26:00,
2013-03-18 02:31:00,23.5,21.0,29.87,NNE,16,0.0,5.4,90,0.00,,,0.00,WUHU215WMR968SP,2013-03-18 06:31:00,
2013-03-18 02:36:00,23.5,21.0,29.87,NNE,28,3.1,5.4,90,0.00,,,0.00,WUHU215WMR968SP,2013-03-18 06:36:00,
2013-03-18 02:41:00,23.5,21.0,29.87,NE,38,3.6,6.3,90,0.00,,,0.00,WUHU215WMR968SP,2013-03-18 06:41:00,
2013-03-18 02:46:00,23.5,21.0,29.87,NNW,335,2.2,6.3,90,0.00,,,0.00,WUHU215WMR968SP,2013-03-18 06:46:00,
2013-03-18 02:51:00,23.5,21.0,29.87,NE,51,4.0,6.3,90,0.00,,,0.00,WUHU215WMR968SP,2013-03-18 06:51:00,
2013-03-18 02:56:00,23.5,21.0,29.87,NNE,17,2.2,5.4,90,0.00,,,0.00,WUHU215WMR968SP,2013-03-18 06:56:00,
2013-03-18 03:01:00,23.4,20.9,29.87,North,357,2.7,5.8,90,0.00,,,0.00,WUHU215WMR968SP,2013-03-18 07:01:00,
2013-03-18 03:06:00,23.4,20.9,29.87,South,177,2.2,5.8,90,0.00,,,0.00,WUHU215WMR968SP,2013-03-18 07:06:00,
2013-03-18 03:11:00,23.4,20.9,29.87,West,260,3.1,5.4,90,0.00,,,0.00,WUHU215WMR968SP,2013-03-18 07:11:00,
2013-03-18 03:16:00,23.2,20.7,29.87,East,82,2.2,4.9,90,0.00,,,0.00,WUHU215WMR968SP,2013-03-18 07:16:00,
2013-03-18 03:21:00,23.2,20.7,29.87,East,84,3.6,5.4,90,0.00,,,0.00,WUHU215WMR968SP,2013-03-18 07:21:00,
2013-03-18 03:26:00,23.0,20.5,29.87,North,10,4.0,11.0,90,0.00,,,0.00,WUHU215WMR968SP,2013-03-18 07:26:00,
2013-03-18 03:31:00,23.0,20.5,29.84,SSE,153,2.7,11.0,90,0.00,,,0.00,WUHU215WMR968SP,2013-03-18 07:31:00,
2013-03-18 03:36:00,22.8,20.3,29.84,East,81,0.0,5.8,90,0.00,,,0.00,WUHU215WMR968SP,2013-03-18 07:36:00,
2013-03-18 03:41:00,22.8,20.7,29.84,North,357,0.0,8.1,92,0.00,,,0.00,WUHU215WMR968SP,2013-03-18 07:41:00,
2013-03-18 03:47:00,22.6,20.5,29.84,NNE,18,3.1,8.1,92,0.00,,,0.00,WUHU215WMR968SP,2013-03-18 07:47:00,
2013-03-18 03:52:00,22.6,20.5,29.84,North,357,4.5,6.3,92,0.00,,,0.00,WUHU215WMR968SP,2013-03-18 07:52:00,
2013-03-18 03:57:00,22.6,20.5,29.84,North,353,4.9,7.6,92,0.00,,,0.00,WUHU215WMR968SP,2013-03-18 07:57:00,
2013-03-18 04:02:00,22.6,20.5,29.84,SSE,167,2.2,7.6,92,0.00,,,0.00,WUHU215WMR968SP,2013-03-18 08:02:00,
2013-03-18 04:07:00,22.6,20.5,29.84,SE,131,3.1,5.4,92,0.00,,,0.00,WUHU215WMR968SP,2013-03-18 08:07:00,
2013-03-18 04:12:00,22.5,20.4,29.84,North,350,3.6,6.3,92,0.00,,,0.00,WUHU215WMR968SP,2013-03-18 08:12:00,
2013-03-18 04:17:00,22.5,20.4,29.81,ENE,69,4.0,9.6,92,0.00,,,0.00,WUHU215WMR968SP,2013-03-18 08:17:00,
2013-03-18 04:22:00,22.5,20.4,29.81,NNW,331,6.7,10.5,92,0.00,,,0.00,WUHU215WMR968SP,2013-03-18 08:22:00,
2013-03-18 04:27:00,22.3,20.2,29.81,North,11,4.9,10.5,92,0.00,,,0.00,WUHU215WMR968SP,2013-03-18 08:27:00,
2013-03-18 04:32:00,22.3,20.2,29.81,NNE,17,3.6,8.7,92,0.00,,,0.00,WUHU215WMR968SP,2013-03-18 08:32:00,
2013-03-18 04:37:00,22.3,20.2,29.81,North,8,4.5,6.3,92,0.00,,,0.00,WUHU215WMR968SP,2013-03-18 08:37:00,
2013-03-18 04:42:00,22.1,20.0,29.81,NE,34,2.2,8.7,92,0.00,,,0.00,WUHU215WMR968SP,2013-03-18 08:42:00,
2013-03-18 04:47:00,22.1,20.0,29.81,NNE,19,3.1,8.7,92,0.00,,,0.00,WUHU215WMR968SP,2013-03-18 08:47:00,
2013-03-18 04:52:00,22.1,20.0,29.81,NNE,22,4.9,8.1,92,0.00,,,0.00,WUHU215WMR968SP,2013-03-18 08:52:00,
2013-03-18 04:57:00,21.9,19.8,29.81,NE,46,3.1,8.1,92,0.00,,,0.00,WUHU215WMR968SP,2013-03-18 08:57:00,
2013-03-18 05:02:00,21.9,19.8,29.81,North,357,2.7,6.3,92,0.00,,,0.00,WUHU215WMR968SP,2013-03-18 09:02:00,
2013-03-18 05:08:00,21.9,20.3,29.81,North,353,2.2,5.8,94,0.00,,,0.00,WUHU215WMR968SP,2013-03-18 09:08:00,
2013-03-18 05:13:00,21.9,20.3,29.81,North,5,4.9,10.1,94,0.00,,,0.00,WUHU215WMR968SP,2013-03-18 09:13:00,
2013-03-18 05:18:00,21.9,20.3,29.78,ENE,66,3.6,10.1,94,0.00,,,0.00,WUHU215WMR968SP,2013-03-18 09:18:00,
2013-03-18 05:23:00,21.7,20.1,29.78,SE,146,3.1,7.2,94,0.00,,,0.00,WUHU215WMR968SP,2013-03-18 09:23:00,
2013-03-18 05:28:00,21.7,20.1,29.78,NW,314,4.9,7.2,94,0.00,,,0.00,WUHU215WMR968SP,2013-03-18 09:28:00,
2013-03-18 05:33:00,21.7,20.1,29.78,NE,36,2.7,6.3,94,0.00,,,0.00,WUHU215WMR968SP,2013-03-18 09:33:00,
2013-03-18 05:38:00,21.6,20.0,29.78,NE,46,4.5,7.6,94,0.00,,,0.00,WUHU215WMR968SP,2013-03-18 09:38:00,
2013-03-18 05:43:00,21.6,20.4,29.78,East,85,4.5,10.1,95,0.00,,,0.00,WUHU215WMR968SP,2013-03-18 09:43:00,
2013-03-18 05:48:00,21.4,20.2,29.78,NNW,343,3.1,10.1,95,0.00,,,0.00,WUHU215WMR968SP,2013-03-18 09:48:00,
2013-03-18 05:53:00,21.4,20.2,29.78,ESE,105,3.1,8.1,95,0.00,,,0.00,WUHU215WMR968SP,2013-03-18 09:53:00,
2013-03-18 05:58:00,21.2,20.4,29.78,South,186,3.1,8.1,97,0.00,,,0.00,WUHU215WMR968SP,2013-03-18 09:58:00,
2013-03-18 06:03:00,21.2,20.4,29.75,NW,321,4.5,7.6,97,0.00,,,0.00,WUHU215WMR968SP,2013-03-18 10:03:00,
2013-03-18 06:08:00,21.2,20.4,29.75,NE,36,5.4,8.3,97,0.00,,,0.00,WUHU215WMR968SP,2013-03-18 10:08:00,
2013-03-18 06:13:00,21.2,20.4,29.75,ESE,121,3.1,8.3,97,0.00,,,0.00,WUHU215WMR968SP,2013-03-18 10:13:00,
2013-03-18 06:18:00,21.2,20.9,29.75,NW,322,4.9,10.5,99,0.00,,,0.00,WUHU215WMR968SP,2013-03-18 10:18:00,
2013-03-18 06:23:00,21.2,20.9,29.75,North,353,2.2,10.5,99,0.00,,,0.00,WUHU215WMR968SP,2013-03-18 10:23:00,
2013-03-18 06:28:00,21.2,20.9,29.75,East,87,0.0,5.8,99,0.00,,,0.00,WUHU215WMR968SP,2013-03-18 10:28:00,
2013-03-18 06:33:00,21.2,20.9,29.75,NNE,23,3.1,6.3,99,0.00,,,0.00,WUHU215WMR968SP,2013-03-18 10:33:00,
2013-03-18 06:38:00,21.2,20.9,29.75,WNW,283,3.1,7.2,99,0.00,,,0.00,WUHU215WMR968SP,2013-03-18 10:38:00,
2013-03-18 06:43:00,21.2,21.2,29.75,North,9,3.6,7.6,100,0.00,,,0.00,WUHU215WMR968SP,2013-03-18 10:43:00,
2013-03-18 06:48:00,21.2,21.2,29.75,NNW,340,3.1,7.6,100,0.00,,,0.00,WUHU215WMR968SP,2013-03-18 10:48:00,
2013-03-18 06:53:00,21.2,21.2,29.75,ENE,63,3.6,6.3,100,0.00,,,0.00,WUHU215WMR968SP,2013-03-18 10:53:00,
2013-03-18 06:58:00,21.2,21.2,29.75,ENE,59,4.0,6.3,100,0.00,,,0.00,WUHU215WMR968SP,2013-03-18 10:58:00,
2013-03-18 07:03:00,21.4,21.4,29.72,East,91,3.6,4.9,100,0.00,,,0.00,WUHU215WMR968SP,2013-03-18 11:03:00,
2013-03-18 07:08:00,21.4,21.4,29.72,NNW,342,3.1,6.3,100,0.00,,,0.00,WUHU215WMR968SP,2013-03-18 11:08:00,
2013-03-18 07:13:00,21.4,21.4,29.72,NNE,24,4.9,6.7,100,0.00,,,0.00,WUHU215WMR968SP,2013-03-18 11:13:00,
2013-03-18 07:18:00,21.4,21.4,29.75,NW,317,0.0,6.7,100,0.00,,,0.00,WUHU215WMR968SP,2013-03-18 11:18:00,
2013-03-18 07:24:00,21.4,21.4,29.75,NNE,16,2.2,8.1,100,0.00,,,0.00,WUHU215WMR968SP,2013-03-18 11:24:00,
2013-03-18 07:29:00,21.4,21.4,29.75,SSE,147,2.7,8.1,100,0.00,,,0.00,WUHU215WMR968SP,2013-03-18 11:29:00,
2013-03-18 07:34:00,21.4,21.4,29.72,SE,127,2.2,8.7,100,0.00,,,0.00,WUHU215WMR968SP,2013-03-18 11:34:00,
2013-03-18 07:39:00,21.4,21.4,29.72,NE,45,3.1,8.7,100,0.00,,,0.00,WUHU215WMR968SP,2013-03-18 11:39:00,
2013-03-18 07:44:00,21.6,21.6,29.72,NE,43,3.6,8.1,100,0.00,,,0.00,WUHU215WMR968SP,2013-03-18 11:44:00,
2013-03-18 07:49:00,21.6,21.6,29.69,NE,37,4.5,7.6,100,0.00,,,0.00,WUHU215WMR968SP,2013-03-18 11:49:00,
2013-03-18 07:54:00,21.7,21.7,29.69,NNE,31,3.1,8.1,100,0.00,,,0.00,WUHU215WMR968SP,2013-03-18 11:54:00,
2013-03-18 07:59:00,21.7,21.7,29.69,North,353,3.1,8.1,100,0.00,,,0.00,WUHU215WMR968SP,2013-03-18 11:59:00,
2013-03-18 08:04:00,21.9,21.9,29.69,ENE,66,4.9,10.5,100,0.00,,,0.00,WUHU215WMR968SP,2013-03-18 12:04:00,
2013-03-18 08:09:00,21.9,21.9,29.69,NNE,14,2.2,10.5,100,0.00,,,0.00,WUHU215WMR968SP,2013-03-18 12:09:00,
2013-03-18 08:14:00,22.1,22.1,29.69,ESE,110,4.0,6.7,100,0.00,,,0.00,WUHU215WMR968SP,2013-03-18 12:14:00,
2013-03-18 08:19:00,22.3,22.3,29.69,SE,126,2.7,7.6,100,0.00,,,0.00,WUHU215WMR968SP,2013-03-18 12:19:00,
2013-03-18 08:24:00,22.5,22.5,29.69,SSE,147,4.0,10.5,100,0.00,,,0.00,WUHU215WMR968SP,2013-03-18 12:24:00,
2013-03-18 08:29:00,22.8,22.8,29.69,SSE,162,3.1,10.5,100,0.00,,,0.00,WUHU215WMR968SP,2013-03-18 12:29:00,
2013-03-18 08:35:00,22.8,22.8,29.66,NE,34,5.4,8.1,100,0.00,,,0.00,WUHU215WMR968SP,2013-03-18 12:35:00,
2013-03-18 08:40:00,23.0,23.0,29.66,NE,39,3.1,8.1,100,0.00,,,0.00,WUHU215WMR968SP,2013-03-18 12:40:00,
2013-03-18 08:45:00,23.4,23.4,29.66,SE,126,2.7,7.2,100,0.00,,,0.00,WUHU215WMR968SP,2013-03-18 12:45:00,
2013-03-18 08:50:00,23.5,23.5,29.66,NNW,341,3.6,6.3,100,0.00,,,0.00,WUHU215WMR968SP,2013-03-18 12:50:00,
2013-03-18 08:55:00,23.9,23.9,29.66,SW,220,2.7,6.3,100,0.00,,,0.00,WUHU215WMR968SP,2013-03-18 12:55:00,
2013-03-18 09:00:00,24.1,24.1,29.66,NNE,31,5.8,9.6,100,0.00,,,0.00,WUHU215WMR968SP,2013-03-18 13:00:00,
2013-03-18 09:05:00,24.3,23.9,29.66,SE,141,3.6,9.6,99,0.00,,,0.00,WUHU215WMR968SP,2013-03-18 13:05:00,
2013-03-18 09:10:00,24.4,24.0,29.66,NE,34,4.9,8.7,99,0.00,,,0.00,WUHU215WMR968SP,2013-03-18 13:10:00,
2013-03-18 09:15:00,24.4,24.0,29.66,North,2,3.1,8.7,99,0.00,,,0.00,WUHU215WMR968SP,2013-03-18 13:15:00,
2013-03-18 09:20:00,24.8,24.4,29.63,NE,45,3.1,8.3,99,0.00,,,0.00,WUHU215WMR968SP,2013-03-18 13:20:00,
2013-03-18 09:25:00,25.0,24.2,29.63,North,6,4.5,6.7,97,0.00,,,0.00,WUHU215WMR968SP,2013-03-18 13:25:00,
2013-03-18 09:30:00,25.2,24.4,29.63,NNE,25,3.6,7.6,97,0.00,,,0.00,WUHU215WMR968SP,2013-03-18 13:30:00,
2013-03-18 09:35:00,25.3,24.5,29.63,North,6,3.6,8.1,97,0.00,,,0.00,WUHU215WMR968SP,2013-03-18 13:35:00,
2013-03-18 09:40:00,25.3,24.1,29.63,ESE,109,6.3,9.6,95,0.00,,,0.00,WUHU215WMR968SP,2013-03-18 13:40:00,
2013-03-18 09:45:00,25.3,24.5,29.63,South,169,3.1,9.6,97,0.00,,,0.00,WUHU215WMR968SP,2013-03-18 13:45:00,
2013-03-18 09:50:00,25.5,24.7,29.63,East,91,3.1,10.5,97,0.00,,,0.00,WUHU215WMR968SP,2013-03-18 13:50:00,
2013-03-18 09:55:00,25.7,24.9,29.63,NE,41,5.4,10.5,97,0.00,,,0.00,WUHU215WMR968SP,2013-03-18 13:55:00,
2013-03-18 10:00:00,25.9,25.5,29.63,NW,315,3.1,9.6,99,0.00,,,0.00,WUHU215WMR968SP,2013-03-18 14:00:00,
2013-03-18 10:05:00,25.9,25.1,29.60,WNW,296,5.8,12.8,97,0.00,,,0.00,WUHU215WMR968SP,2013-03-18 14:05:00,
2013-03-18 10:10:00,26.1,25.7,29.60,North,3,4.0,12.8,99,0.00,,,0.00,WUHU215WMR968SP,2013-03-18 14:10:00,
2013-03-18 10:15:00,26.1,25.7,29.60,SE,131,3.1,8.3,99,0.00,,,0.00,WUHU215WMR968SP,2013-03-18 14:15:00,
2013-03-18 10:20:00,26.2,26.2,29.60,NNW,340,3.6,8.3,100,0.00,,,0.00,WUHU215WMR968SP,2013-03-18 14:20:00,
2013-03-18 10:25:00,26.4,26.4,29.60,ENE,74,5.4,10.1,100,0.00,,,0.00,WUHU215WMR968SP,2013-03-18 14:25:00,
2013-03-18 10:30:00,26.6,26.6,29.60,SE,136,4.0,10.1,100,0.00,,,0.00,WUHU215WMR968SP,2013-03-18 14:30:00,
2013-03-18 10:35:00,26.8,26.8,29.60,SSE,168,4.9,10.1,100,0.00,,,0.00,WUHU215WMR968SP,2013-03-18 14:35:00,
2013-03-18 10:40:00,27.0,27.0,29.60,ESE,110,4.9,10.1,100,0.00,,,0.00,WUHU215WMR968SP,2013-03-18 14:40:00,
2013-03-18 10:45:00,27.1,27.1,29.60,NNE,18,0.0,7.6,100,0.00,,,0.00,WUHU215WMR968SP,2013-03-18 14:45:00,
2013-03-18 10:50:00,27.3,27.3,29.57,NE,35,3.6,10.5,100,0.00,,,0.00,WUHU215WMR968SP,2013-03-18 14:50:00,
2013-03-18 10:55:00,27.3,27.3,29.57,West,261,4.9,10.5,100,0.00,,,0.00,WUHU215WMR968SP,2013-03-18 14:55:00,
2013-03-18 11:00:00,27.3,27.3,29.57,NW,322,3.1,8.3,100,0.00,,,0.00,WUHU215WMR968SP,2013-03-18 15:00:00,
2013-03-18 11:05:00,27.3,27.3,29.57,NNE,28,5.4,11.0,100,0.00,,,0.00,WUHU215WMR968SP,2013-03-18 15:05:00,
2013-03-18 11:10:00,27.5,27.5,29.57,NNE,21,4.5,11.0,100,0.00,,,0.00,WUHU215WMR968SP,2013-03-18 15:10:00,
2013-03-18 11:15:00,27.7,27.7,29.57,North,357,2.7,9.6,100,0.00,,,0.00,WUHU215WMR968SP,2013-03-18 15:15:00,
2013-03-18 11:20:00,27.9,27.9,29.57,ENE,76,3.1,9.6,100,0.00,,,0.00,WUHU215WMR968SP,2013-03-18 15:20:00,
2013-03-18 11:25:00,27.9,27.9,29.57,NNE,27,3.1,8.3,100,0.00,,,0.00,WUHU215WMR968SP,2013-03-18 15:25:00,
2013-03-18 11:30:00,28.0,28.0,29.57,WSW,255,2.7,8.3,100,0.00,,,0.00,WUHU215WMR968SP,2013-03-18 15:30:00,
2013-03-18 11:35:00,28.2,28.2,29.57,North,353,2.2,7.6,100,0.00,,,0.00,WUHU215WMR968SP,2013-03-18 15:35:00,
2013-03-18 11:40:00,28.4,28.4,29.57,North,8,5.4,8.3,100,0.00,,,0.00,WUHU215WMR968SP,2013-03-18 15:40:00,
2013-03-18 11:45:00,28.6,28.6,29.57,ENE,64,4.0,10.5,100,0.00,,,0.00,WUHU215WMR968SP,2013-03-18 15:45:00,
2013-03-18 11:50:00,28.8,28.8,29.55,NE,35,5.4,11.4,100,0.00,,,0.00,WUHU215WMR968SP,2013-03-18 15:50:00,
2013-03-18 11:55:00,28.9,28.9,29.55,NNW,330,3.6,11.4,100,0.00,,,0.00,WUHU215WMR968SP,2013-03-18 15:55:00,
2013-03-18 12:00:00,28.9,28.9,29.55,SSE,158,3.1,10.5,100,0.00,,,0.00,WUHU215WMR968SP,2013-03-18 16:00:00,
2013-03-18 12:05:00,28.9,28.9,29.55,North,11,4.0,8.1,100,0.00,,,0.00,WUHU215WMR968SP,2013-03-18 16:05:00,
2013-03-18 12:10:00,28.8,28.8,29.55,ENE,70,2.7,8.1,100,0.00,,,0.00,WUHU215WMR968SP,2013-03-18 16:10:00,
2013-03-18 12:15:00,28.8,28.8,29.55,NNW,330,3.6,10.5,100,0.00,,,0.00,WUHU215WMR968SP,2013-03-18 16:15:00,
2013-03-18 12:20:00,28.9,28.9,29.55,East,99,3.1,10.5,100,0.00,,,0.00,WUHU215WMR968SP,2013-03-18 16:20:00,
2013-03-18 12:25:00,29.3,29.3,29.55,ESE,108,4.0,7.6,100,0.00,,,0.00,WUHU215WMR968SP,2013-03-18 16:25:00,
2013-03-18 12:30:00,29.3,29.3,29.55,ESE,113,4.5,8.3,100,0.00,,,0.00,WUHU215WMR968SP,2013-03-18 16:30:00,
2013-03-18 12:35:00,29.5,29.5,29.55,SSE,155,3.6,8.3,100,0.00,,,0.00,WUHU215WMR968SP,2013-03-18 16:35:00,
2013-03-18 12:40:00,29.7,29.7,29.55,NNE,13,3.6,7.6,100,0.00,,,0.00,WUHU215WMR968SP,2013-03-18 16:40:00,
2013-03-18 12:45:00,30.0,30.0,29.55,South,188,2.2,5.8,100,0.00,,,0.00,WUHU215WMR968SP,2013-03-18 16:45:00,
2013-03-18 12:50:00,30.2,30.2,29.52,NE,43,2.2,5.8,100,0.00,,,0.00,WUHU215WMR968SP,2013-03-18 16:50:00,
2013-03-18 12:55:00,30.4,30.4,29.52,North,5,3.6,7.6,100,0.00,,,0.00,WUHU215WMR968SP,2013-03-18 16:55:00,
2013-03-18 13:00:00,30.6,30.6,29.52,SSE,149,4.0,7.6,100,0.00,,,0.00,WUHU215WMR968SP,2013-03-18 17:00:00,
2013-03-18 13:05:00,30.6,30.6,29.52,NW,316,3.1,10.1,100,0.00,,,0.00,WUHU215WMR968SP,2013-03-18 17:05:00,
2013-03-18 13:10:00,30.7,30.7,29.52,NNW,348,4.0,10.1,100,0.00,,,0.00,WUHU215WMR968SP,2013-03-18 17:10:00,
2013-03-18 13:15:00,30.9,30.9,29.52,SSE,166,3.6,8.1,100,0.00,,,0.00,WUHU215WMR968SP,2013-03-18 17:15:00,
2013-03-18 13:20:00,30.9,30.9,29.52,NNW,341,2.2,8.1,100,0.00,,,0.00,WUHU215WMR968SP,2013-03-18 17:20:00,
2013-03-18 13:25:00,30.9,30.9,29.52,East,99,2.7,8.1,100,0.00,,,0.00,WUHU215WMR968SP,2013-03-18 17:25:00,
2013-03-18 13:30:00,31.1,31.1,29.52,NE,39,4.5,8.1,100,0.00,,,0.00,WUHU215WMR968SP,2013-03-18 17:30:00,
2013-03-18 13:35:00,31.3,31.3,29.49,ESE,114,3.1,6.3,100,0.00,,,0.00,WUHU215WMR968SP,2013-03-18 17:35:00,
2013-03-18 13:40:00,31.5,31.5,29.49,SSE,149,5.4,9.6,100,0.00,,,0.00,WUHU215WMR968SP,2013-03-18 17:40:00,
2013-03-18 13:45:00,31.5,31.5,29.49,ENE,76,2.7,9.6,100,0.00,,,0.00,WUHU215WMR968SP,2013-03-18 17:45:00,
2013-03-18 13:50:00,31.5,31.5,29.49,South,175,0.0,8.1,100,0.00,,,0.00,WUHU215WMR968SP,2013-03-18 17:50:00,
2013-03-18 13:55:00,31.5,31.5,29.49,NE,37,2.7,8.7,100,0.00,,,0.00,WUHU215WMR968SP,2013-03-18 17:55:00,
2013-03-18 14:00:00,31.6,31.6,29.49,NNE,12,3.6,8.7,100,0.00,,,0.00,WUHU215WMR968SP,2013-03-18 18:00:00,
2013-03-18 14:05:00,31.6,31.6,29.49,NE,39,0.0,6.3,100,0.00,,,0.00,WUHU215WMR968SP,2013-03-18 18:05:00,
2013-03-18 14:10:00,31.8,31.8,29.49,SSE,147,3.6,4.0,100,0.00,,,0.00,WUHU215WMR968SP,2013-03-18 18:10:00,
2013-03-18 14:15:00,31.8,31.8,29.49,North,353,2.7,5.8,100,0.00,,,0.00,WUHU215WMR968SP,2013-03-18 18:15:00,
2013-03-18 14:20:00,32.0,32.0,29.46,SSE,163,3.6,6.7,100,0.00,,,0.00,WUHU215WMR968SP,2013-03-18 18:20:00,
2013-03-18 14:25:00,32.2,32.2,29.46,ESE,122,0.0,6.7,100,0.00,,,0.00,WUHU215WMR968SP,2013-03-18 18:25:00,
2013-03-18 14:30:00,32.2,32.2,29.46,SSE,168,3.6,6.3,100,0.00,,,0.00,WUHU215WMR968SP,2013-03-18 18:30:00,
2013-03-18 14:35:00,32.2,32.2,29.46,ESE,115,2.2,6.3,100,0.00,,,0.00,WUHU215WMR968SP,2013-03-18 18:35:00,
2013-03-18 14:40:00,32.2,32.2,29.46,ENE,72,3.1,7.6,100,0.00,,,0.00,WUHU215WMR968SP,2013-03-18 18:40:00,
2013-03-18 14:45:00,32.2,32.2,29.46,SW,230,0.0,7.6,100,0.00,,,0.00,WUHU215WMR968SP,2013-03-18 18:45:00,
2013-03-18 14:50:00,32.2,32.2,29.46,SE,136,0.0,5.4,100,0.00,,,0.00,WUHU215WMR968SP,2013-03-18 18:50:00,
2013-03-18 14:55:00,32.2,32.2,29.46,ESE,111,0.0,5.4,100,0.00,,,0.00,WUHU215WMR968SP,2013-03-18 18:55:00,
2013-03-18 15:00:00,32.2,32.2,29.46,SSW,209,2.2,6.3,100,0.00,,,0.00,WUHU215WMR968SP,2013-03-18 19:00:00,
2013-03-18 15:05:00,32.0,32.0,29.43,ENE,77,2.2,6.3,100,0.00,,,0.00,WUHU215WMR968SP,2013-03-18 19:05:00,
2013-03-18 15:10:00,32.2,32.2,29.43,SSE,159,0.0,4.9,100,0.00,,,0.00,WUHU215WMR968SP,2013-03-18 19:10:00,
2013-03-18 15:15:00,32.2,32.2,29.43,South,177,2.2,4.9,100,0.00,,,0.00,WUHU215WMR968SP,2013-03-18 19:15:00,
2013-03-18 15:20:00,32.2,32.2,29.43,ESE,116,2.2,4.0,100,0.00,,,0.00,WUHU215WMR968SP,2013-03-18 19:20:00,
2013-03-18 15:25:00,32.2,32.2,29.43,SSE,156,3.1,6.3,100,0.00,,,0.00,WUHU215WMR968SP,2013-03-18 19:25:00,
2013-03-18 15:30:00,32.2,32.2,29.43,SE,140,0.0,6.3,100,0.00,,,0.00,WUHU215WMR968SP,2013-03-18 19:30:00,
2013-03-18 15:35:00,32.2,32.2,29.43,SSE,160,2.2,4.0,100,0.00,,,0.00,WUHU215WMR968SP,2013-03-18 19:35:00,
2013-03-18 15:40:00,32.2,32.2,29.43,SSE,156,0.0,4.0,100,0.00,,,0.00,WUHU215WMR968SP,2013-03-18 19:40:00,
2013-03-18 15:45:00,32.4,32.4,29.43,SSE,147,0.0,4.0,100,0.00,,,0.00,WUHU215WMR968SP,2013-03-18 19:45:00,
2013-03-18 15:50:00,32.5,32.5,29.43,South,176,0.0,3.1,100,0.00,,,0.00,WUHU215WMR968SP,2013-03-18 19:50:00,
2013-03-18 15:55:00,32.5,32.5,29.43,South,178,0.0,3.1,100,0.00,,,0.00,WUHU215WMR968SP,2013-03-18 19:55:00,
2013-03-18 16:00:00,32.5,32.5,29.43,SSE,151,2.2,3.1,100,0.00,,,0.00,WUHU215WMR968SP,2013-03-18 20:00:00,
2013-03-18 16:05:00,32.7,32.7,29.43,SE,146,0.0,3.1,100,0.00,,,0.00,WUHU215WMR968SP,2013-03-18 20:05:00,
2013-03-18 16:10:00,32.7,32.7,29.43,South,183,0.0,3.1,100,0.00,,,0.00,WUHU215WMR968SP,2013-03-18 20:10:00,
2013-03-18 16:15:00,32.7,32.7,29.43,SSE,157,0.0,3.1,100,0.00,,,0.00,WUHU215WMR968SP,2013-03-18 20:15:00,
2013-03-18 16:20:00,32.7,32.7,29.43,SSE,166,0.0,3.1,100,0.00,,,0.00,WUHU215WMR968SP,2013-03-18 20:20:00,
2013-03-18 16:25:00,32.9,32.9,29.43,SE,145,0.0,3.1,100,0.00,,,0.00,WUHU215WMR968SP,2013-03-18 20:25:00,
2013-03-18 16:30:00,33.1,33.1,29.43,SSE,153,0.0,3.1,100,0.00,,,0.00,WUHU215WMR968SP,2013-03-18 20:30:00,
2013-03-18 16:35:00,33.1,33.1,29.43,SSE,153,0.0,2.7,100,0.00,,,0.00,WUHU215WMR968SP,2013-03-18 20:35:00,
2013-03-18 16:40:00,33.1,33.1,29.43,SSE,153,0.0,2.7,100,0.00,,,0.00,WUHU215WMR968SP,2013-03-18 20:40:00,
2013-03-18 16:45:00,33.1,33.1,29.43,South,169,0.0,3.1,100,0.00,,,0.00,WUHU215WMR968SP,2013-03-18 20:45:00,
2013-03-18 16:50:00,33.1,33.1,29.40,SSE,160,0.0,3.1,100,0.00,,,0.00,WUHU215WMR968SP,2013-03-18 20:50:00,
2013-03-18 16:55:00,33.3,33.3,29.40,SSE,160,0.0,3.1,100,0.00,,,0.00,WUHU215WMR968SP,2013-03-18 20:55:00,
2013-03-18 17:00:00,33.4,33.4,29.40,SSE,160,0.0,0.0,100,0.00,,,0.00,WUHU215WMR968SP,2013-03-18 21:00:00,
2013-03-18 17:05:00,33.4,33.4,29.40,SSE,156,0.0,2.7,100,0.00,,,0.00,WUHU215WMR968SP,2013-03-18 21:05:00,
2013-03-18 17:10:00,33.3,33.3,29.40,SSE,156,0.0,2.7,100,0.00,,,0.00,WUHU215WMR968SP,2013-03-18 21:10:00,
2013-03-18 17:15:00,33.4,33.4,29.40,SSE,157,0.0,2.2,100,0.00,,,0.00,WUHU215WMR968SP,2013-03-18 21:15:00,
2013-03-18 17:20:00,33.4,33.4,29.40,SSE,157,0.0,0.0,100,0.00,,,0.00,WUHU215WMR968SP,2013-03-18 21:20:00,
2013-03-18 17:25:00,33.4,33.4,29.40,SSE,156,0.0,2.7,100,0.00,,,0.00,WUHU215WMR968SP,2013-03-18 21:25:00,
2013-03-18 17:30:00,33.4,33.4,29.40,SSE,157,0.0,2.7,100,0.00,,,0.00,WUHU215WMR968SP,2013-03-18 21:30:00,
2013-03-18 17:36:00,33.4,33.4,29.40,SSE,157,0.0,0.0,100,0.00,,,0.00,WUHU215WMR968SP,2013-03-18 21:36:00,
2013-03-18 17:41:00,33.4,33.4,29.40,SSE,156,0.0,0.0,100,0.00,,,0.00,WUHU215WMR968SP,2013-03-18 21:41:00,
2013-03-18 17:46:00,33.4,33.4,29.40,SSE,157,0.0,0.0,100,0.00,,,0.00,WUHU215WMR968SP,2013-03-18 21:46:00,
2013-03-18 17:51:00,33.6,33.6,29.40,NE,34,0.0,2.2,100,0.00,,,0.00,WUHU215WMR968SP,2013-03-18 21:51:00,
2013-03-18 17:56:00,33.6,33.6,29.40,NE,34,0.0,2.2,100,0.00,,,0.00,WUHU215WMR968SP,2013-03-18 21:56:00,
2013-03-18 18:01:00,33.6,33.6,29.40,SSE,155,0.0,2.2,100,0.00,,,0.00,WUHU215WMR968SP,2013-03-18 22:01:00,
2013-03-18 18:07:00,33.4,33.4,29.40,SSE,155,0.0,2.7,100,0.00,,,0.00,WUHU215WMR968SP,2013-03-18 22:07:00,
2013-03-18 18:12:00,33.3,33.3,29.40,South,176,0.0,3.1,100,0.00,,,0.00,WUHU215WMR968SP,2013-03-18 22:12:00,
2013-03-18 18:17:00,33.3,33.3,29.40,South,176,0.0,3.1,100,0.00,,,0.00,WUHU215WMR968SP,2013-03-18 22:17:00,
2013-03-18 18:22:00,33.3,33.3,29.40,South,176,0.0,2.2,100,0.00,,,0.00,WUHU215WMR968SP,2013-03-18 22:22:00,
2013-03-18 18:27:00,33.3,33.3,29.40,South,176,0.0,0.0,100,0.00,,,0.00,WUHU215WMR968SP,2013-03-18 22:27:00,
2013-03-18 18:32:00,33.3,33.3,29.40,SSW,211,0.0,2.2,100,0.00,,,0.00,WUHU215WMR968SP,2013-03-18 22:32:00,
2013-03-18 18:37:00,33.3,33.3,29.40,SSW,208,2.2,3.1,100,0.00,,,0.00,WUHU215WMR968SP,2013-03-18 22:37:00,
2013-03-18 18:42:00,33.3,33.3,29.40,SW,233,2.2,3.1,100,0.00,,,0.00,WUHU215WMR968SP,2013-03-18 22:42:00,
2013-03-18 18:47:00,33.3,33.3,29.40,SW,224,0.0,3.6,100,0.00,,,0.00,WUHU215WMR968SP,2013-03-18 22:47:00,
2013-03-18 18:52:00,33.3,33.3,29.40,SSW,211,0.0,3.6,100,0.00,,,0.00,WUHU215WMR968SP,2013-03-18 22:52:00,
2013-03-18 18:57:00,33.3,33.3,29.40,SSW,198,0.0,3.6,100,0.00,,,0.00,WUHU215WMR968SP,2013-03-18 22:57:00,
2013-03-18 19:02:00,33.3,33.3,29.40,SSW,200,0.0,3.6,100,0.00,,,0.00,WUHU215WMR968SP,2013-03-18 23:02:00,
2013-03-18 19:07:00,33.3,33.3,29.40,SSW,194,0.0,4.0,100,0.00,,,0.00,WUHU215WMR968SP,2013-03-18 23:07:00,
2013-03-18 19:12:00,33.3,33.3,29.40,South,178,0.0,4.0,100,0.00,,,0.00,WUHU215WMR968SP,2013-03-18 23:12:00,
2013-03-18 19:17:00,33.3,33.3,29.37,SSW,195,0.0,3.6,100,0.00,,,0.00,WUHU215WMR968SP,2013-03-18 23:17:00,
2013-03-18 19:22:00,33.3,33.3,29.37,SSW,192,2.7,3.6,100,0.00,,,0.00,WUHU215WMR968SP,2013-03-18 23:22:00,
2013-03-18 19:27:00,33.1,33.1,29.37,South,191,0.0,4.0,100,0.00,,,0.00,WUHU215WMR968SP,2013-03-18 23:27:00,
2013-03-18 19:32:00,33.1,33.1,29.40,South,184,0.0,4.0,100,0.00,,,0.00,WUHU215WMR968SP,2013-03-18 23:32:00,
2013-03-18 19:37:00,33.1,33.1,29.40,South,189,0.0,4.0,100,0.00,,,0.00,WUHU215WMR968SP,2013-03-18 23:37:00,
2013-03-18 19:42:00,33.1,33.1,29.40,SSW,198,0.0,5.4,100,0.00,,,0.00,WUHU215WMR968SP,2013-03-18 23:42:00,
2013-03-18 19:48:00,33.1,33.1,29.40,SSW,205,2.7,5.4,100,0.00,,,0.00,WUHU215WMR968SP,2013-03-18 23:48:00,
2013-03-18 19:53:00,33.1,33.1,29.40,SW,224,3.6,7.6,100,0.00,,,0.00,WUHU215WMR968SP,2013-03-18 23:53:00,
2013-03-18 19:58:00,33.1,33.1,29.40,South,190,2.2,7.6,100,0.00,,,0.00,WUHU215WMR968SP,2013-03-18 23:58:00,
2013-03-18 20:03:00,33.1,33.1,29.40,South,178,2.2,4.9,100,0.00,,,0.00,WUHU215WMR968SP,2013-03-19 00:03:00,
2013-03-18 20:08:00,33.1,33.1,29.40,SW,217,2.2,5.4,100,0.00,,,0.00,WUHU215WMR968SP,2013-03-19 00:08:00,
2013-03-18 20:13:00,33.1,33.1,29.40,South,191,0.0,5.8,100,0.00,,,0.00,WUHU215WMR968SP,2013-03-19 00:13:00,
2013-03-18 20:18:00,33.3,33.3,29.40,South,178,4.0,6.7,100,0.00,,,0.00,WUHU215WMR968SP,2013-03-19 00:18:00,
2013-03-18 20:23:00,33.3,33.3,29.40,WSW,258,0.0,6.7,100,0.00,,,0.00,WUHU215WMR968SP,2013-03-19 00:23:00,
2013-03-18 20:28:00,33.3,33.3,29.40,SW,229,2.2,6.3,100,0.00,,,0.00,WUHU215WMR968SP,2013-03-19 00:28:00,
2013-03-18 20:33:00,33.3,33.3,29.43,SW,222,2.2,6.3,100,0.00,,,0.00,WUHU215WMR968SP,2013-03-19 00:33:00,
2013-03-18 20:38:00,33.3,33.3,29.43,SSE,166,3.6,5.8,100,0.00,,,0.00,WUHU215WMR968SP,2013-03-19 00:38:00,
2013-03-18 20:43:00,33.3,33.3,29.43,SW,218,4.0,8.1,100,0.00,,,0.00,WUHU215WMR968SP,2013-03-19 00:43:00,
2013-03-18 20:48:00,33.3,33.3,29.43,SW,216,3.1,8.1,100,0.00,,,0.00,WUHU215WMR968SP,2013-03-19 00:48:00,
2013-03-18 20:53:00,33.4,33.4,29.43,WSW,245,2.7,7.6,100,0.00,,,0.00,WUHU215WMR968SP,2013-03-19 00:53:00,
2013-03-18 20:58:00,33.4,33.4,29.43,SW,226,3.1,8.7,100,0.00,,,0.00,WUHU215WMR968SP,2013-03-19 00:58:00,
2013-03-18 21:03:00,33.4,33.4,29.43,SSE,160,5.4,8.7,100,0.00,,,0.00,WUHU215WMR968SP,2013-03-19 01:03:00,
2013-03-18 21:08:00,33.4,33.4,29.43,SW,220,2.2,8.7,100,0.00,,,0.00,WUHU215WMR968SP,2013-03-19 01:08:00,
2013-03-18 21:13:00,33.4,33.4,29.43,South,170,0.0,6.7,100,0.00,,,0.00,WUHU215WMR968SP,2013-03-19 01:13:00,
2013-03-18 21:18:00,33.6,33.6,29.43,SSE,164,2.7,6.7,100,0.00,,,0.00,WUHU215WMR968SP,2013-03-19 01:18:00,
2013-03-18 21:23:00,33.6,33.6,29.43,SSE,154,2.7,6.3,100,0.00,,,0.00,WUHU215WMR968SP,2013-03-19 01:23:00,
2013-03-18 21:29:00,33.6,33.6,29.43,South,181,3.6,8.3,100,0.00,,,0.00,WUHU215WMR968SP,2013-03-19 01:29:00,
2013-03-18 21:34:00,33.6,33.6,29.43,WSW,254,2.7,8.3,100,0.00,,,0.00,WUHU215WMR968SP,2013-03-19 01:34:00,
2013-03-18 21:39:00,33.8,33.8,29.43,SSE,167,2.2,6.3,100,0.00,,,0.00,WUHU215WMR968SP,2013-03-19 01:39:00,
2013-03-18 21:44:00,33.8,33.8,29.43,SSW,208,0.0,7.6,100,0.00,,,0.00,WUHU215WMR968SP,2013-03-19 01:44:00,
2013-03-18 21:49:00,33.8,33.8,29.43,SW,229,2.2,7.6,100,0.00,,,0.00,WUHU215WMR968SP,2013-03-19 01:49:00,
2013-03-18 21:54:00,33.8,33.8,29.43,NNW,337,2.2,5.8,100,0.00,,,0.00,WUHU215WMR968SP,2013-03-19 01:54:00,
2013-03-18 21:59:00,33.8,33.8,29.43,WSW,256,4.0,9.6,100,0.00,,,0.00,WUHU215WMR968SP,2013-03-19 01:59:00,
2013-03-18 22:04:00,33.8,33.8,29.43,North,1,4.0,9.6,100,0.00,,,0.00,WUHU215WMR968SP,2013-03-19 02:04:00,
2013-03-18 22:09:00,33.8,33.8,29.43,WSW,244,3.6,7.6,100,0.00,,,0.00,WUHU215WMR968SP,2013-03-19 02:09:00,
2013-03-18 22:14:00,34.0,34.0,29.43,SSE,157,3.1,5.8,100,0.00,,,0.00,WUHU215WMR968SP,2013-03-19 02:14:00,
2013-03-18 22:19:00,34.0,34.0,29.43,South,189,2.7,8.1,100,0.00,,,0.00,WUHU215WMR968SP,2013-03-19 02:19:00,
2013-03-18 22:24:00,34.0,34.0,29.43,WSW,244,3.6,8.1,100,0.00,,,0.00,WUHU215WMR968SP,2013-03-19 02:24:00,
2013-03-18 22:29:00,34.0,34.0,29.43,West,264,4.0,8.1,100,0.00,,,0.00,WUHU215WMR968SP,2013-03-19 02:29:00,
2013-03-18 22:34:00,34.0,34.0,29.43,SSE,166,3.6,7.6,100,0.00,,,0.00,WUHU215WMR968SP,2013-03-19 02:34:00,
2013-03-18 22:39:00,34.0,34.0,29.43,SSE,163,3.1,7.6,100,0.00,,,0.00,WUHU215WMR968SP,2013-03-19 02:39:00,
2013-03-18 22:44:00,34.0,34.0,29.43,WSW,258,2.7,5.8,100,0.00,,,0.00,WUHU215WMR968SP,2013-03-19 02:44:00,
2013-03-18 22:49:00,34.0,34.0,29.43,NW,306,3.1,8.7,100,0.00,,,0.00,WUHU215WMR968SP,2013-03-19 02:49:00,
2013-03-18 22:54:00,34.0,34.0,29.43,SSW,200,3.1,8.7,100,0.00,,,0.00,WUHU215WMR968SP,2013-03-19 02:54:00,
2013-03-18 22:59:00,34.0,34.0,29.43,West,262,3.1,8.3,100,0.00,,,0.00,WUHU215WMR968SP,2013-03-19 02:59:00,
2013-03-18 23:04:00,34.0,34.0,29.43,SW,231,3.1,6.7,100,0.00,,,0.00,WUHU215WMR968SP,2013-03-19 03:04:00,
2013-03-18 23:09:00,34.0,34.0,29.43,SSE,147,3.1,7.6,100,0.00,,,0.00,WUHU215WMR968SP,2013-03-19 03:09:00,
2013-03-18 23:14:00,33.8,33.8,29.43,WNW,296,2.7,7.6,100,0.00,,,0.00,WUHU215WMR968SP,2013-03-19 03:14:00,
2013-03-18 23:19:00,33.6,33.6,29.43,SE,135,4.0,6.3,100,0.00,,,0.00,WUHU215WMR968SP,2013-03-19 03:19:00,
2013-03-18 23:24:00,33.1,33.1,29.43,SSE,147,3.6,6.3,100,0.00,,,0.00,WUHU215WMR968SP,2013-03-19 03:24:00,
2013-03-18 23:29:00,32.7,32.7,29.43,South,182,3.6,8.3,100,0.00,,,0.00,WUHU215WMR968SP,2013-03-19 03:29:00,
2013-03-18 23:34:00,32.5,32.5,29.46,SSW,207,4.9,12.8,100,0.00,,,0.00,WUHU215WMR968SP,2013-03-19 03:34:00,
2013-03-18 23:39:00,32.2,32.2,29.46,SE,141,4.5,12.8,100,0.00,,,0.00,WUHU215WMR968SP,2013-03-19 03:39:00,
2013-03-18 23:44:00,31.6,31.6,29.46,SSW,204,3.1,8.7,100,0.00,,,0.00,WUHU215WMR968SP,2013-03-19 03:44:00,
2013-03-18 23:49:00,31.1,31.1,29.43,West,265,4.5,8.7,100,0.00,,,0.00,WUHU215WMR968SP,2013-03-19 03:49:00,
2013-03-18 23:54:00,30.6,30.6,29.43,West,277,4.5,10.5,100,0.00,,,0.00,WUHU215WMR968SP,2013-03-19 03:54:00,
2013-03-18 23:59:00,30.2,30.2,29.43,SW,230,4.9,10.5,100,0.00,,,0.00,WUHU215WMR968SP,2013-03-19 03:59:00,